Preview of NWS' New Version of Forecast
This preview is not operational and should not be used for support decisions.

Regional Weather Roundup (RWR)

Issued by National Weather Service (NWS)

                            
000
ASUS44 KMEG 231010
RWRTN 
TENNESSEE HOURLY STATE WEATHER ROUNDUP
NATIONAL WEATHER SERVICE MEMPHIS TN
500 AM CDT THU MAY 23 2019

TNZ002-004-019-021-049-052-054-088>092-231100-
WEST TENNESSEE
  
CITY           SKY/WX    TMP DP  RH WIND       PRES   REMARKS
MEMPHIS INTL   FAIR      76  72  87 S7        30.10R                  
NWS MEMPHIS      N/A     75 N/A N/A MISG        N/A                   
JACKSON        FAIR      71  68  90 SW6       30.12R                  
DYERSBURG      FAIR      76  71  85 S6        30.11R                  
SOMERVILLE     CLEAR     72  68  88 CALM      30.11R                  
COVINGTON      CLEAR     75  70  83 S3        30.09R                  
UNION CITY     CLEAR     75  70  83 VRB7      30.08R                  
BOLIVAR        CLEAR     68  66  94 CALM      30.12R                  
PARIS          CLEAR     72  68  88 SW7       30.10R                  
HUNTINGDON     CLEAR     72  68  88 S5        30.11R                  
LEXINGTON      CLEAR     68  66  94 CALM      30.12R                  
SELMER         CLEAR     72  66  83 S5        30.12R                  
SAVANNAH       PTCLDY    70  66  88 CALM      30.13R                  
$$

TNZ008-025-027-028-033-062-065-066-231100-
NORTH MIDDLE TENNESSEE
  
CITY           SKY/WX    TMP DP  RH WIND       PRES   REMARKS
NASHVILLE      FAIR      70  57  63 S3        30.14R                  
DICKSON        SUNNY     70  64  83 S8        30.13R                  
PORTLAND       CLEAR     70  57  64 S8        30.13R                  
CLARKSVILLE    FAIR      75  63  66 SW12      30.10R                  
LEBANON        MOSUNNY   73  55  53 S9        30.12R                  
SMYRNA         FAIR      66  59  78 SE3       30.15R                  
MURFREESBORO   PTSUNNY   66  59  77 CALM      30.14R                  
COOKEVILLE     CLEAR     68  57  68 CALM      30.18R                  
LIVINGSTON     SUNNY     70  55  60 S7        30.18R                  
CROSSVILLE     FAIR      67  63  87 VRB3      30.23R                  
ROCKWOOD       SUNNY     68  64  88 W6        30.21S                  
$$

TNZ061-075-076-078-094-096-097-231100-
SOUTH MIDDLE TENNESSEE
  
CITY           SKY/WX    TMP DP  RH WIND       PRES   REMARKS
LAWRENCEBURG   SUNNY     68  61  77 SE6       30.15R                  
LEWISBURG      SUNNY     66  59  77 CALM      30.15R                  
FAYETTEVILLE   CLEAR     68  57  68 CALM      30.17R                  
TULLAHOMA      CLEAR     61  57  88 CALM      30.18R                  
WINCHESTER     CLEAR     68  55  64 SE5       30.18R                  
MCMINNVILLE    CLEAR     61  57  88 CALM      30.18R                  
COLUMBIA       CLEAR     72  64  78 S7        30.12R                  
SHELBYVILLE    CLEAR     68  57  68 SE5       30.16R                  
$$

TNZ017-018-042-046-047-231100-
NORTHEAST TENNESSEE
  
CITY           SKY/WX    TMP DP  RH WIND       PRES   REMARKS
TRI CITIES     MOCLDY    64  61  90 CALM      30.22R                  
ELIZABETHTON   CLOUDY    68  63  83 CALM      30.23R                  
GREENEVILLE    SUNNY     72  64  78 S5        30.20S                  
$$

TNZ012-013-036-069-073-074-231100-
CENTRAL EAST TENNESSEE
  
CITY           SKY/WX    TMP DP  RH WIND       PRES   REMARKS
KNOXVILLE      MOCLDY    71  66  84 W6        30.18R                  
OAK RIDGE      FAIR      70  64  81 CALM      30.20R                  
DOWNTOWN KNOXV MOCLDY    64  64 100 CALM      30.19R FOG              
GATLINBURG     CLEAR     66  64  94 CALM      30.19R                  
MORRISTOWN     MOCLDY    68  66  94 CALM      30.19R                  
JACKSBORO      PTCLDY    63  61  94 CALM      30.22R                  
$$

TNZ083-085-099-231100-
SOUTHEAST TENNESSEE
  
CITY           SKY/WX    TMP DP  RH WIND       PRES   REMARKS
CHATTANOOGA    FAIR      70  66  87 SE5       30.19R                  
DAYTON         CLOUDY    66  64  94 CALM      30.19R                  
$$

SKY/WX REPORTED AS FAIR MEANS FEW OR NO CLOUDS BELOW
12 THOUSAND FEET.